| time (UTC) | temp C | wind direction | speed KPH | gust KPH | rain 1hr cm | rain 24hr cm | rain mn cm | humidity % | barometer mb |
| 20260502130710 | 6 | 73 | 0.0 | 3.2 | 0.00 | 0.03 | 0.03 | 87 | 1012.6 |
| 20260502130208 | 6 | 69 | 0.0 | 3.2 | 0.00 | 0.03 | 0.03 | 85 | 1012.7 |
| 20260502123654 | 5 | 35 | 0.0 | 3.2 | 0.00 | 0.03 | 0.03 | 88 | 1012.8 |
| 20260502123151 | 5 | 343 | 0.0 | 3.2 | 0.00 | 0.03 | 0.03 | 88 | 1012.9 |
| 20260502122647 | 5 | 18 | 0.0 | 0.0 | 0.00 | 0.03 | 0.03 | 89 | 1012.8 |
| 20260502122144 | 5 | 65 | 0.0 | 3.2 | 0.00 | 0.03 | 0.03 | 92 | 1013.0 |
| 20260502121642 | 5 | 29 | 0.0 | 0.0 | 0.00 | 0.03 | 0.03 | 93 | 1012.7 |
| 20260502121139 | 5 | 37 | 0.0 | 0.0 | 0.00 | 0.03 | 0.03 | 93 | 1012.6 |
| 20260502120635 | 5 | 59 | 0.0 | 4.8 | 0.00 | 0.03 | 0.03 | 92 | 1012.6 |
| 20260502120132 | 5 | 64 | 0.0 | 3.2 | 0.00 | 0.03 | 0.03 | 92 | 1012.6 |
| 20260502115630 | 5 | 63 | 3.2 | 3.2 | 0.00 | 0.03 | 0.03 | 91 | 1012.7 |
| 20260502115126 | 4 | 61 | 0.0 | 3.2 | 0.00 | 0.03 | 0.03 | 91 | 1012.6 |
| 20260502114622 | 4 | 62 | 0.0 | 3.2 | 0.00 | 0.03 | 0.03 | 92 | 1012.7 |
| 20260502114120 | 4 | 19 | 0.0 | 0.0 | 0.00 | 0.03 | 0.03 | 91 | 1012.8 |
| 20260502113617 | 4 | 18 | 0.0 | 0.0 | 0.00 | 0.03 | 0.03 | 90 | 1012.9 |
| 20260502113115 | 3 | 18 | 0.0 | 0.0 | 0.00 | 0.03 | 0.03 | 90 | 1012.8 |
| 20260502112613 | 3 | 356 | 3.2 | 3.2 | 0.13 | 0.03 | 0.03 | 91 | 1013.0 |
| 20260502112110 | 3 | 354 | 3.2 | 4.8 | 0.13 | 0.03 | 0.03 | 93 | 1013.0 |
| 20260502111608 | 3 | 18 | 1.6 | 3.2 | 0.00 | 0.00 | 0.00 | 92 | 1013.1 |
| 20260502111105 | 3 | 309 | 0.0 | 3.2 | 0.00 | 0.00 | 0.00 | 90 | 1013.4 |
| 20260502110602 | 3 | 337 | 0.0 | 0.0 | 0.00 | 0.00 | 0.00 | 88 | 1013.1 |
| 20260502110100 | 3 | 327 | 3.2 | 4.8 | 0.00 | 0.00 | 0.00 | 87 | 1012.9 |
| 20260502105556 | 3 | 21 | 0.0 | 3.2 | 0.00 | 0.00 | 0.00 | 90 | 1012.8 |
| 20260502105054 | 3 | 38 | 1.6 | 3.2 | 0.00 | 0.00 | 0.00 | 91 | 1012.8 |
| 20260502104551 | 3 | 74 | 4.8 | 4.8 | 0.00 | 0.00 | 0.00 | 90 | 1013.0 |
| 20260502104048 | 3 | 343 | 4.8 | 4.8 | 0.00 | 0.00 | 0.00 | 89 | 1012.9 |
| 20260502103546 | 3 | 305 | 0.0 | 3.2 | 0.00 | 0.00 | 0.00 | 87 | 1012.9 |
| 20260502103044 | 3 | 348 | 3.2 | 4.8 | 0.00 | 0.00 | 0.00 | 87 | 1012.2 |
| 20260502102540 | 4 | 329 | 3.2 | 4.8 | 0.00 | 0.00 | 0.00 | 82 | 1012.1 |
| 20260502102037 | 3 | 11 | 3.2 | 4.8 | 0.00 | 0.00 | 0.00 | 82 | 1012.1 |
| 20260502101535 | 3 | 339 | 3.2 | 3.2 | 0.00 | 0.00 | 0.00 | 84 | 1012.1 |
| 20260502101033 | 3 | 9 | 0.0 | 3.2 | 0.00 | 0.00 | 0.00 | 83 | 1012.1 |
| 20260502100531 | 3 | 352 | 3.2 | 3.2 | 0.00 | 0.00 | 0.00 | 84 | 1012.2 |
| 20260502091506 | 3 | 27 | 3.2 | 3.2 | 0.00 | 0.00 | 0.00 | 90 | 1011.5 |
| 20260502091003 | 3 | 27 | 0.0 | 0.0 | 0.00 | 0.00 | 0.00 | 90 | 1011.6 |
| 20260502090500 | 3 | 27 | 0.0 | 0.0 | 0.00 | 0.00 | 0.00 | 90 | 1011.4 |
| 20260502071355 | 3 | 4 | 1.6 | 3.2 | 0.00 | 0.00 | 0.00 | 74 | 1012.2 |
| 20260502070853 | 3 | 4 | 1.6 | 4.8 | 0.00 | 0.00 | 0.00 | 73 | 1012.0 |
| 20260502070350 | 2 | 37 | 3.2 | 3.2 | 0.00 | 0.00 | 0.00 | 80 | 1012.1 |
| 20260502065849 | 2 | 38 | 3.2 | 3.2 | 0.00 | 0.00 | 0.00 | 83 | 1011.7 |
| 20260502065347 | 2 | 39 | 0.0 | 0.0 | 0.00 | 0.00 | 0.00 | 83 | 1011.7 |
| 20260502064844 | 2 | 39 | 3.2 | 3.2 | 0.00 | 0.00 | 0.00 | 83 | 1011.7 |
| 20260502064337 | 2 | 40 | 0.0 | 3.2 | 0.00 | 0.00 | 0.00 | 84 | 1011.6 |
| 20260502063833 | 2 | 40 | 3.2 | 3.2 | 0.00 | 0.00 | 0.00 | 86 | 1011.5 |
| 20260502063331 | 2 | 41 | 0.0 | 3.2 | 0.00 | 0.00 | 0.00 | 85 | 1011.6 |
| 20260502062828 | 2 | 41 | 1.6 | 3.2 | 0.00 | 0.00 | 0.00 | 83 | 1011.6 |
| 20260502062326 | 2 | 41 | 0.0 | 3.2 | 0.00 | 0.00 | 0.00 | 81 | 1011.6 |
| 20260502061825 | 2 | 41 | 0.0 | 3.2 | 0.00 | 0.00 | 0.00 | 79 | 1011.4 |
| 20260502061322 | 2 | 41 | 0.0 | 0.0 | 0.00 | 0.00 | 0.00 | 81 | 1011.5 |
| 20260502060818 | 3 | 41 | 1.6 | 3.2 | 0.00 | 0.00 | 0.00 | 78 | 1011.4 |
| 20260502060313 | 2 | 41 | 0.0 | 3.2 | 0.00 | 0.00 | 0.00 | 77 | 1011.3 |
| 20260502055811 | 2 | 41 | 0.0 | 3.2 | 0.00 | 0.00 | 0.00 | 77 | 1011.4 |
| 20260502055308 | 2 | 41 | 0.0 | 0.0 | 0.00 | 0.00 | 0.00 | 79 | 1011.3 |
| 20260502054808 | 2 | 41 | 0.0 | 0.0 | 0.00 | 0.00 | 0.00 | 80 | 1011.4 |
| 20260502054305 | 2 | 41 | 0.0 | 3.2 | 0.00 | 0.00 | 0.00 | 79 | 1011.2 |
| 20260502053802 | 2 | 41 | 0.0 | 0.0 | 0.00 | 0.00 | 0.00 | 74 | 1011.2 |
| 20260502053259 | 2 | 41 | 0.0 | 0.0 | 0.00 | 0.00 | 0.00 | 71 | 1011.3 |
| 20260502052757 | 2 | 41 | 0.0 | 3.2 | 0.00 | 0.00 | 0.00 | 77 | 1011.2 |
| 20260502052255 | 2 | 41 | 3.2 | 3.2 | 0.00 | 0.00 | 0.00 | 73 | 1011.4 |
| 20260502051753 | 2 | 41 | 0.0 | 3.2 | 0.00 | 0.00 | 0.00 | 69 | 1011.3 |
| 20260502051251 | 2 | 41 | 3.2 | 3.2 | 0.00 | 0.00 | 0.00 | 73 | 1011.2 |
| 20260502050747 | 2 | 41 | 1.6 | 3.2 | 0.00 | 0.00 | 0.00 | 73 | 1011.4 |
| 20260502050243 | 2 | 41 | 0.0 | 3.2 | 0.00 | 0.00 | 0.00 | 74 | 1011.4 |
| 20260502045741 | 3 | 41 | 1.6 | 3.2 | 0.00 | 0.00 | 0.00 | 77 | 1011.4 |
| 20260502045237 | 3 | 41 | 0.0 | 3.2 | 0.00 | 0.00 | 0.00 | 65 | 1011.4 |
| 20260502044734 | 3 | 41 | 0.0 | 3.2 | 0.00 | 0.00 | 0.00 | 68 | 1011.3 |
| 20260502044230 | 3 | 41 | 0.0 | 3.2 | 0.00 | 0.00 | 0.00 | 74 | 1011.3 |
| 20260502043728 | 3 | 41 | 0.0 | 0.0 | 0.00 | 0.00 | 0.00 | 63 | 1011.4 |
| 20260502043225 | 3 | 41 | 1.6 | 3.2 | 0.00 | 0.00 | 0.00 | 66 | 1011.4 |
| 20260502042724 | 3 | 41 | 0.0 | 0.0 | 0.00 | 0.00 | 0.00 | 69 | 1011.2 |
| 20260502042222 | 2 | 41 | 0.0 | 3.2 | 0.00 | 0.00 | 0.00 | 72 | 1011.2 |
| 20260502041720 | 2 | 41 | 1.6 | 3.2 | 0.00 | 0.00 | 0.00 | 81 | 1011.2 |
| 20260502041217 | 2 | 41 | 3.2 | 3.2 | 0.00 | 0.00 | 0.00 | 80 | 1011.4 |
| 20260502040714 | 2 | 42 | 0.0 | 0.0 | 0.00 | 0.00 | 0.00 | 86 | 1011.2 |
| 20260502040210 | 2 | 41 | 0.0 | 3.2 | 0.00 | 0.00 | 0.00 | 85 | 1011.1 |
| 20260502035706 | 3 | 41 | 1.6 | 3.2 | 0.00 | 0.00 | 0.00 | 81 | 1011.0 |
| 20260502035203 | 3 | 42 | 0.0 | 0.0 | 0.00 | 0.00 | 0.00 | 78 | 1011.1 |
| 20260502034701 | 4 | 42 | 0.0 | 0.0 | 0.00 | 0.00 | 0.00 | 64 | 1011.1 |
| 20260502034159 | 4 | 42 | 0.0 | 0.0 | 0.00 | 0.00 | 0.00 | 61 | 1011.1 |
| 20260502033657 | 4 | 41 | 0.0 | 3.2 | 0.00 | 0.00 | 0.00 | 65 | 1011.0 |
| 20260502033155 | 3 | 41 | 1.6 | 3.2 | 0.00 | 0.00 | 0.00 | 72 | 1011.0 |
| 20260502032650 | 3 | 41 | 1.6 | 3.2 | 0.00 | 0.00 | 0.00 | 84 | 1010.8 |
| 20260502032147 | 3 | 41 | 3.2 | 3.2 | 0.00 | 0.00 | 0.00 | 81 | 1011.0 |
| 20260502031645 | 3 | 42 | 3.2 | 3.2 | 0.00 | 0.00 | 0.00 | 76 | 1010.9 |
| 20260502031142 | 5 | 42 | 1.6 | 3.2 | 0.00 | 0.00 | 0.00 | 72 | 1010.9 |
| 20260502030641 | 5 | 74 | 0.0 | 3.2 | 0.00 | 0.00 | 0.00 | 67 | 1011.0 |
| 20260502030139 | 5 | 59 | 3.2 | 3.2 | 0.00 | 0.00 | 0.00 | 59 | 1011.0 |
| 20260502025635 | 5 | 324 | 0.0 | 3.2 | 0.00 | 0.00 | 0.00 | 54 | 1010.8 |
| 20260502025134 | 3 | 324 | 1.6 | 3.2 | 0.00 | 0.00 | 0.00 | 70 | 1010.9 |
| 20260502024631 | 3 | 324 | 0.0 | 0.0 | 0.00 | 0.00 | 0.00 | 73 | 1011.0 |
| 20260502024129 | 4 | 324 | 0.0 | 0.0 | 0.00 | 0.00 | 0.00 | 73 | 1011.0 |
| 20260502023627 | 4 | 324 | 1.6 | 3.2 | 0.00 | 0.00 | 0.00 | 73 | 1010.9 |
| 20260502023124 | 4 | 324 | 0.0 | 3.2 | 0.00 | 0.00 | 0.00 | 71 | 1010.9 |
| 20260502022621 | 5 | 324 | 0.0 | 3.2 | 0.00 | 0.00 | 0.00 | 70 | 1010.9 |
| 20260502022118 | 5 | 324 | 0.0 | 3.2 | 0.00 | 0.00 | 0.00 | 67 | 1010.9 |
| 20260502021615 | 5 | 324 | 0.0 | 3.2 | 0.00 | 0.00 | 0.00 | 70 | 1010.9 |
| 20260502021112 | 6 | 324 | 0.0 | 3.2 | 0.00 | 0.00 | 0.00 | 60 | 1011.0 |
| 20260502020610 | 6 | 324 | 0.0 | 3.2 | 0.00 | 0.00 | 0.00 | 51 | 1010.9 |
| 20260502020106 | 6 | 324 | 0.0 | 3.2 | 0.00 | 0.00 | 0.00 | 59 | 1011.0 |
| 20260502015604 | 5 | 324 | 0.0 | 3.2 | 0.00 | 0.00 | 0.00 | 60 | 1011.0 |
| 20260502015100 | 5 | 324 | 0.0 | 0.0 | 0.00 | 0.00 | 0.00 | 71 | 1011.0 |
| 20260502014557 | 5 | 324 | 0.0 | 0.0 | 0.00 | 0.00 | 0.00 | 78 | 1010.9 |
| 20260502014054 | 6 | 324 | 1.6 | 3.2 | 0.00 | 0.00 | 0.00 | 73 | 1010.9 |
| 20260502013549 | 6 | 324 | 0.0 | 0.0 | 0.00 | 0.00 | 0.00 | 59 | 1010.9 |
| 20260502013046 | 6 | 324 | 1.6 | 3.2 | 0.00 | 0.00 | 0.00 | 64 | 1010.9 |
| 20260502012543 | 6 | 324 | 0.0 | 3.2 | 0.00 | 0.00 | 0.00 | 70 | 1010.7 |
| 20260502012041 | 6 | 324 | 0.0 | 3.2 | 0.00 | 0.00 | 0.00 | 74 | 1011.0 |
| 20260502011537 | 6 | 324 | 0.0 | 3.2 | 0.00 | 0.00 | 0.00 | 72 | 1010.5 |
| 20260502011033 | 7 | 324 | 0.0 | 3.2 | 0.00 | 0.00 | 0.00 | 70 | 1010.5 |
| 20260502010531 | 7 | 323 | 3.2 | 3.2 | 0.00 | 0.00 | 0.00 | 62 | 1010.7 |
| 20260502010027 | 7 | 324 | 0.0 | 0.0 | 0.00 | 0.00 | 0.00 | 45 | 1010.5 |
| 20260502005525 | 7 | 324 | 0.0 | 0.0 | 0.00 | 0.00 | 0.00 | 52 | 1010.3 |
| 20260502005023 | 8 | 324 | 0.0 | 0.0 | 0.00 | 0.00 | 0.00 | 51 | 1010.4 |
| 20260502004518 | 9 | 324 | 0.0 | 3.2 | 0.00 | 0.00 | 0.00 | 39 | 1010.3 |
| 20260502004015 | 10 | 324 | 1.6 | 3.2 | 0.00 | 0.00 | 0.00 | 38 | 1010.2 |
| 20260502003513 | 10 | 324 | 1.6 | 3.2 | 0.00 | 0.00 | 0.00 | 38 | 1010.5 |
| 20260502003009 | 10 | 324 | 1.6 | 3.2 | 0.00 | 0.00 | 0.00 | 38 | 1010.3 |
| 20260502002506 | 10 | 324 | 3.2 | 3.2 | 0.00 | 0.00 | 0.00 | 38 | 1010.4 |
| 20260502002004 | 10 | 324 | 3.2 | 3.2 | 0.00 | 0.00 | 0.00 | 39 | 1010.1 |
| 20260502001501 | 10 | 324 | 3.2 | 3.2 | 0.00 | 0.00 | 0.00 | 39 | 1010.1 |
| 20260502000958 | 10 | 323 | 3.2 | 3.2 | 0.00 | 0.00 | 0.00 | 39 | 1010.0 |
| 20260502000457 | 10 | 323 | 3.2 | 4.8 | 0.00 | 0.00 | 0.00 | 39 | 1009.8 |
| 20260501235953 | 10 | 324 | 3.2 | 4.8 | 0.00 | 0.00 | 0.00 | 39 | 1009.9 |
| 20260501235448 | 10 | 335 | 3.2 | 3.2 | 0.00 | 0.00 | 0.00 | 40 | 1009.6 |
| 20260501234943 | 10 | 289 | 6.4 | 8.0 | 0.00 | 0.00 | 0.00 | 38 | 1009.6 |
| 20260501234440 | 11 | 296 | 3.2 | 8.0 | 0.00 | 0.00 | 0.00 | 40 | 1009.5 |
| 20260501233940 | 11 | 326 | 3.2 | 4.8 | 0.00 | 0.00 | 0.00 | 42 | 1009.3 |
| 20260501233437 | 11 | 289 | 3.2 | 8.0 | 0.00 | 0.00 | 0.00 | 37 | 1009.4 |
| 20260501232932 | 11 | 288 | 4.8 | 4.8 | 0.00 | 0.00 | 0.00 | 36 | 1009.3 |
| 20260501232430 | 12 | 294 | 6.4 | 8.0 | 0.00 | 0.00 | 0.00 | 37 | 1009.2 |
| 20260501231927 | 12 | 312 | 4.8 | 8.0 | 0.00 | 0.00 | 0.00 | 33 | 1009.1 |
| 20260501231426 | 12 | 293 | 8.0 | 11.3 | 0.00 | 0.00 | 0.00 | 33 | 1009.0 |
| 20260501230923 | 12 | 278 | 11.3 | 16.1 | 0.00 | 0.00 | 0.00 | 32 | 1009.1 |
| 20260501230422 | 12 | 274 | 14.5 | 16.1 | 0.00 | 0.00 | 0.00 | 32 | 1008.7 |
| 20260501225919 | 12 | 283 | 8.0 | 8.0 | 0.00 | 0.00 | 0.00 | 35 | 1008.5 |
| 20260501225417 | 12 | 276 | 8.0 | 16.1 | 0.00 | 0.00 | 0.00 | 32 | 1008.7 |
| 20260501224912 | 12 | 270 | 11.3 | 19.3 | 0.00 | 0.00 | 0.00 | 31 | 1008.5 |
| 20260501224410 | 12 | 273 | 9.7 | 16.1 | 0.00 | 0.00 | 0.00 | 33 | 1008.6 |
| 20260501223906 | 12 | 269 | 11.3 | 19.3 | 0.00 | 0.00 | 0.00 | 32 | 1008.4 |
| 20260501223402 | 12 | 276 | 14.5 | 19.3 | 0.00 | 0.00 | 0.00 | 32 | 1008.4 |
| 20260501222858 | 12 | 284 | 14.5 | 16.1 | 0.00 | 0.00 | 0.00 | 35 | 1008.3 |
| 20260501222355 | 13 | 268 | 12.9 | 16.1 | 0.00 | 0.00 | 0.00 | 32 | 1008.2 |
| 20260501221852 | 13 | 268 | 8.0 | 19.3 | 0.00 | 0.00 | 0.00 | 35 | 1008.1 |
| 20260501221349 | 13 | 288 | 11.3 | 19.3 | 0.00 | 0.00 | 0.00 | 31 | 1008.2 |
| 20260501220847 | 13 | 267 | 11.3 | 19.3 | 0.00 | 0.00 | 0.00 | 31 | 1008.1 |
| 20260501220344 | 13 | 315 | 12.9 | 19.3 | 0.00 | 0.00 | 0.00 | 33 | 1007.9 |
| 20260501215840 | 13 | 268 | 11.3 | 16.1 | 0.00 | 0.00 | 0.00 | 30 | 1007.8 |
| 20260501215337 | 13 | 275 | 14.5 | 19.3 | 0.00 | 0.00 | 0.00 | 30 | 1007.8 |
| 20260501214833 | 13 | 296 | 8.0 | 16.1 | 0.00 | 0.00 | 0.00 | 33 | 1007.8 |
| 20260501214328 | 13 | 276 | 19.3 | 22.5 | 0.00 | 0.00 | 0.00 | 32 | 1007.7 |
| 20260501213825 | 13 | 273 | 16.1 | 22.5 | 0.00 | 0.00 | 0.00 | 32 | 1007.6 |
| 20260501213321 | 13 | 288 | 20.9 | 24.1 | 0.00 | 0.00 | 0.00 | 31 | 1007.5 |
| 20260501212817 | 13 | 272 | 22.5 | 30.6 | 0.00 | 0.00 | 0.00 | 30 | 1007.4 |
| 20260501212314 | 13 | 275 | 12.9 | 16.1 | 0.00 | 0.00 | 0.00 | 34 | 1007.3 |
| 20260501211811 | 13 | 268 | 14.5 | 16.1 | 0.00 | 0.00 | 0.00 | 33 | 1007.3 |
| 20260501211308 | 13 | 337 | 19.3 | 22.5 | 0.00 | 0.00 | 0.00 | 34 | 1007.5 |
| 20260501210805 | 13 | 298 | 12.9 | 19.3 | 0.00 | 0.00 | 0.00 | 33 | 1007.4 |
| 20260501210302 | 13 | 273 | 24.1 | 30.6 | 0.00 | 0.00 | 0.00 | 32 | 1007.2 |
| 20260501205758 | 14 | 279 | 19.3 | 30.6 | 0.00 | 0.00 | 0.00 | 32 | 1007.3 |
| 20260501205255 | 13 | 279 | 9.7 | 14.5 | 0.00 | 0.00 | 0.00 | 35 | 1007.2 |
| 20260501204752 | 13 | 249 | 16.1 | 24.1 | 0.00 | 0.00 | 0.00 | 32 | 1007.2 |
| 20260501204249 | 14 | 266 | 14.5 | 16.1 | 0.00 | 0.00 | 0.00 | 33 | 1007.0 |
| 20260501203745 | 14 | 260 | 6.4 | 19.3 | 0.00 | 0.00 | 0.00 | 37 | 1007.1 |
| 20260501203243 | 14 | 257 | 14.5 | 16.1 | 0.00 | 0.00 | 0.00 | 34 | 1007.0 |
| 20260501202739 | 14 | 267 | 17.7 | 24.1 | 0.00 | 0.00 | 0.00 | 34 | 1006.9 |
| 20260501202236 | 13 | 268 | 6.4 | 11.3 | 0.00 | 0.00 | 0.00 | 35 | 1007.0 |
| 20260501201733 | 14 | 266 | 17.7 | 27.4 | 0.00 | 0.00 | 0.00 | 35 | 1007.0 |
| 20260501201230 | 15 | 308 | 12.9 | 16.1 | 0.00 | 0.00 | 0.00 | 37 | 1007.1 |
| 20260501200727 | 13 | 285 | 8.0 | 11.3 | 0.00 | 0.00 | 0.00 | 38 | 1007.0 |
| 20260501200224 | 13 | 330 | 9.7 | 14.5 | 0.00 | 0.00 | 0.00 | 37 | 1007.1 |
| 20260501195721 | 13 | 328 | 11.3 | 14.5 | 0.00 | 0.00 | 0.00 | 38 | 1006.9 |
| 20260501195217 | 13 | 272 | 4.8 | 11.3 | 0.00 | 0.00 | 0.00 | 38 | 1006.9 |
| 20260501194713 | 13 | 308 | 11.3 | 14.5 | 0.00 | 0.00 | 0.00 | 42 | 1006.7 |
| 20260501194209 | 14 | 332 | 11.3 | 16.1 | 0.00 | 0.00 | 0.00 | 39 | 1006.9 |
| 20260501193706 | 13 | 321 | 4.8 | 8.0 | 0.00 | 0.00 | 0.00 | 42 | 1006.8 |
| 20260501193204 | 13 | 288 | 11.3 | 16.1 | 0.00 | 0.00 | 0.00 | 41 | 1006.8 |
| 20260501192701 | 13 | 6 | 8.0 | 14.5 | 0.00 | 0.00 | 0.00 | 41 | 1006.7 |
| 20260501192158 | 13 | 329 | 14.5 | 16.1 | 0.00 | 0.00 | 0.00 | 42 | 1006.8 |
| 20260501191655 | 14 | 282 | 9.7 | 14.5 | 0.00 | 0.00 | 0.00 | 43 | 1006.8 |
| 20260501191153 | 13 | 299 | 4.8 | 14.5 | 0.00 | 0.00 | 0.00 | 43 | 1006.8 |
| 20260501190649 | 13 | 346 | 6.4 | 14.5 | 0.00 | 0.00 | 0.00 | 41 | 1006.8 |
| 20260501190144 | 13 | 278 | 6.4 | 11.3 | 0.00 | 0.00 | 0.00 | 44 | 1006.7 |
| 20260501185640 | 14 | 293 | 4.8 | 14.5 | 0.00 | 0.00 | 0.00 | 45 | 1006.8 |
| 20260501185136 | 14 | 291 | 6.4 | 14.5 | 0.00 | 0.00 | 0.00 | 44 | 1007.0 |
| 20260501184633 | 13 | 288 | 11.3 | 16.1 | 0.00 | 0.00 | 0.00 | 44 | 1006.8 |
| 20260501184127 | 13 | 328 | 8.0 | 11.3 | 0.00 | 0.00 | 0.00 | 45 | 1006.8 |
| 20260501183624 | 13 | 295 | 9.7 | 14.5 | 0.00 | 0.00 | 0.00 | 45 | 1006.7 |
| 20260501183121 | 13 | 324 | 3.2 | 14.5 | 0.00 | 0.00 | 0.00 | 46 | 1006.8 |
| 20260501182618 | 13 | 268 | 6.4 | 8.0 | 0.00 | 0.00 | 0.00 | 48 | 1006.8 |
| 20260501182114 | 13 | 269 | 11.3 | 19.3 | 0.00 | 0.00 | 0.00 | 47 | 1006.8 |
| 20260501181612 | 13 | 336 | 6.4 | 11.3 | 0.00 | 0.00 | 0.00 | 45 | 1006.6 |
| 20260501181108 | 12 | 303 | 6.4 | 11.3 | 0.00 | 0.00 | 0.00 | 48 | 1006.8 |
| 20260501180607 | 12 | 303 | 4.8 | 4.8 | 0.00 | 0.00 | 0.00 | 48 | 1006.9 |
| 20260501175559 | 12 | 301 | 4.8 | 8.0 | 0.00 | 0.00 | 0.00 | 52 | 1006.9 |
| 20260501175056 | 12 | 322 | 9.7 | 16.1 | 0.00 | 0.00 | 0.00 | 52 | 1006.8 |
| 20260501174553 | 12 | 277 | 4.8 | 8.0 | 0.00 | 0.00 | 0.00 | 52 | 1006.9 |
| 20260501174051 | 13 | 12 | 4.8 | 4.8 | 0.00 | 0.00 | 0.00 | 50 | 1006.9 |
| 20260501173548 | 12 | 266 | 11.3 | 14.5 | 0.00 | 0.00 | 0.00 | 51 | 1006.9 |
| 20260501173044 | 12 | 267 | 6.4 | 11.3 | 0.00 | 0.00 | 0.00 | 52 | 1007.1 |
| 20260501172540 | 12 | 316 | 4.8 | 11.3 | 0.00 | 0.00 | 0.00 | 52 | 1007.0 |
| 20260501172036 | 12 | 267 | 1.6 | 16.1 | 0.00 | 0.00 | 0.00 | 49 | 1007.0 |
| 20260501171532 | 12 | 274 | 9.7 | 11.3 | 0.00 | 0.00 | 0.00 | 51 | 1007.0 |
| 20260501171029 | 12 | 318 | 6.4 | 8.0 | 0.00 | 0.00 | 0.00 | 53 | 1006.9 |
| 20260501170525 | 11 | 245 | 4.8 | 4.8 | 0.00 | 0.00 | 0.00 | 56 | 1007.1 |
| 20260501170023 | 11 | 315 | 8.0 | 8.0 | 0.00 | 0.00 | 0.00 | 56 | 1006.9 |
| 20260501165520 | 11 | 341 | 3.2 | 4.8 | 0.00 | 0.00 | 0.00 | 56 | 1007.1 |
| 20260501165018 | 11 | 303 | 3.2 | 4.8 | 0.00 | 0.00 | 0.00 | 54 | 1007.4 |
| 20260501164515 | 11 | 26 | 1.6 | 3.2 | 0.00 | 0.00 | 0.00 | 57 | 1007.5 |
| 20260501164012 | 11 | 298 | 4.8 | 8.0 | 0.00 | 0.00 | 0.00 | 57 | 1007.4 |
| 20260501163509 | 11 | 339 | 3.2 | 4.8 | 0.00 | 0.00 | 0.00 | 58 | 1007.4 |
| 20260501163005 | 11 | 294 | 6.4 | 8.0 | 0.00 | 0.00 | 0.00 | 59 | 1007.5 |
| 20260501162502 | 11 | 253 | 3.2 | 4.8 | 0.00 | 0.00 | 0.00 | 61 | 1007.4 |
| 20260501161958 | 11 | 338 | 0.0 | 4.8 | 0.00 | 0.00 | 0.00 | 57 | 1007.4 |
| 20260501161456 | 11 | 28 | 3.2 | 3.2 | 0.00 | 0.00 | 0.00 | 58 | 1007.5 |
| 20260501160952 | 10 | 296 | 4.8 | 8.0 | 0.00 | 0.00 | 0.00 | 60 | 1007.5 |
| 20260501160449 | 10 | 231 | 3.2 | 4.8 | 0.00 | 0.00 | 0.00 | 59 | 1007.5 |
| 20260501155946 | 10 | 344 | 3.2 | 4.8 | 0.00 | 0.00 | 0.00 | 62 | 1007.6 |
| 20260501155443 | 10 | 139 | 1.6 | 3.2 | 0.00 | 0.00 | 0.00 | 64 | 1007.5 |
| 20260501154940 | 10 | 179 | 3.2 | 3.2 | 0.00 | 0.00 | 0.00 | 69 | 1007.5 |
| 20260501154437 | 10 | 139 | 0.0 | 3.2 | 0.00 | 0.00 | 0.00 | 71 | 1007.7 |
| 20260501153934 | 10 | 185 | 3.2 | 4.8 | 0.00 | 0.00 | 0.00 | 68 | 1007.8 |
| 20260501153432 | 10 | 69 | 3.2 | 4.8 | 0.00 | 0.00 | 0.00 | 69 | 1007.6 |
| 20260501152927 | 10 | 207 | 4.8 | 4.8 | 0.00 | 0.00 | 0.00 | 63 | 1007.6 |
| 20260501152425 | 10 | 203 | 3.2 | 4.8 | 0.00 | 0.00 | 0.00 | 65 | 1007.7 |
| 20260501151922 | 10 | 223 | 4.8 | 4.8 | 0.00 | 0.00 | 0.00 | 62 | 1007.5 |
| 20260501151419 | 10 | 100 | 1.6 | 3.2 | 0.00 | 0.00 | 0.00 | 64 | 1007.6 |
| 20260501150915 | 10 | 134 | 0.0 | 3.2 | 0.00 | 0.00 | 0.00 | 64 | 1007.5 |
| 20260501150411 | 10 | 95 | 3.2 | 3.2 | 0.00 | 0.00 | 0.00 | 63 | 1007.6 |
| 20260501145907 | 10 | 217 | 3.2 | 4.8 | 0.00 | 0.00 | 0.00 | 66 | 1007.7 |
| 20260501145404 | 10 | 46 | 0.0 | 3.2 | 0.00 | 0.00 | 0.00 | 55 | 1007.4 |